Indianapolis Mount Comfort, IN

10:58 AM EST on December 15, 2019 (GMT -0500)
Mount Comfort

Weather History for KMQJ - June, 2019

Change the Weather History Date:

Tuesday, June 11, 2019

  Actual Average (KEYE) Record (KEYE)
Temperature  
Mean Temperature 62 °F -  
Max Temperature 75 °F 75 °F 92 °F (2016)
Min Temperature 48 °F 60 °F 57 °F (2006)
Degree Days  
Heating Degree Days 4    
Growing Degree Days 12 (Base 50)    
Moisture  
Dew Point 53 °F    
Average Humidity 71    
Maximum Humidity 100    
Minimum Humidity 44    
Precipitation  
Precipitation 0.00 in - - ()
Sea Level Pressure  
Sea Level Pressure 30.19 in    
Wind  
Wind Speed 1 mph (SSE)    
Max Wind Speed 7 mph    
Max Gust Speed -    
Visibility 10 miles    
Events      
Averages and records for this station are not official NWS values.
T = Trace of Precipitation, MM = Missing Value Source: NWS Daily Summary

Daily Weather History Graph

Daily Weather History Graph

Search for Another Location

Airport or City:

Astronomy

Jun. 11, 2019 Rise Set
Actual Time 6:14 AM EDT 9:11 PM EDT
Civil Twilight 5:42 AM EDT 9:44 PM EDT
Nautical Twilight 5:01 AM EDT 10:25 PM EDT
Astronomical Twilight 4:13 AM EDT 11:13 PM EDT
Moon 3:11 PM EDT (6/11) 2:57 AM EDT (6/11)
Length of Visible Light 16h 02m
Length of Day
14h 57m
Waxing Gibbous, 66% of the Moon is Illuminated
Jun 11
Waxing Gibbous
Jun 17
Full
Jun 25
Last Quarter
Jul 2
New
Jul 9
First Quarter

Hourly Weather History & Observations

Time (EDT) Temp. Dew Point Humidity Pressure Visibility Wind Dir Wind Speed Gust Speed Precip Events Conditions
12:03 AM 55.4 °F 53.6 °F 94% 30.20 in 10.0 mi Calm Calm - N/A   Clear
12:22 AM 55.4 °F 53.6 °F 94% 30.20 in 10.0 mi Calm Calm - N/A   Clear
12:43 AM 55.4 °F 53.6 °F 94% 30.20 in 10.0 mi NNW 3.5 mph - N/A   Clear
1:04 AM 53.6 °F 51.8 °F 94% 30.20 in 10.0 mi North 4.6 mph - N/A   Clear
1:26 AM 51.8 °F 51.8 °F 100% 30.20 in 10.0 mi Calm Calm - N/A   Clear
1:46 AM 53.6 °F 53.6 °F 100% 30.21 in 10.0 mi Calm Calm - N/A   Clear
2:07 AM 53.6 °F 53.6 °F 100% 30.21 in 10.0 mi Calm Calm - N/A   Clear
2:25 AM 51.8 °F 51.8 °F 100% 30.21 in 10.0 mi Calm Calm - N/A   Clear
2:45 AM 51.8 °F 51.8 °F 100% 30.21 in 10.0 mi Calm Calm - N/A   Clear
3:02 AM 51.8 °F 51.8 °F 100% 30.20 in 10.0 mi Calm Calm - N/A   Clear
3:23 AM 51.8 °F 51.8 °F 100% 30.20 in 10.0 mi Calm Calm - N/A   Clear
3:44 AM 51.8 °F 51.8 °F 100% 30.20 in 10.0 mi Calm Calm - N/A   Clear
4:04 AM 50.0 °F 50.0 °F 100% 30.20 in 10.0 mi Calm Calm - N/A   Clear
4:23 AM 50.0 °F 50.0 °F 100% 30.20 in 10.0 mi Calm Calm - N/A   Clear
4:43 AM 50.0 °F 50.0 °F 100% 30.21 in 10.0 mi Calm Calm - N/A   Clear
5:03 AM 50.0 °F 50.0 °F 100% 30.21 in 10.0 mi Calm Calm - N/A   Clear
5:24 AM 50.0 °F 50.0 °F 100% 30.21 in 10.0 mi Calm Calm - N/A   Clear
5:42 AM 50.0 °F 50.0 °F 100% 30.22 in 10.0 mi Calm Calm - N/A   Clear
6:05 AM 50.0 °F 50.0 °F 100% 30.22 in 10.0 mi Calm Calm - N/A   Clear
6:28 AM 50.0 °F 50.0 °F 100% 30.23 in 10.0 mi Calm Calm - N/A   Clear
6:43 AM 48.2 °F 48.2 °F 100% 30.24 in 10.0 mi Calm Calm - N/A   Clear
7:03 AM 50.0 °F 50.0 °F 100% 30.24 in 10.0 mi Calm Calm - N/A   Clear
7:23 AM 51.8 °F 51.8 °F 100% 30.24 in 10.0 mi Calm Calm - N/A   Clear
7:46 AM 55.4 °F 55.4 °F 100% 30.24 in 10.0 mi Calm Calm - N/A   Clear
8:04 AM 57.2 °F 55.4 °F 94% 30.25 in 10.0 mi West 3.5 mph - N/A   Clear
8:24 AM 59.0 °F 57.2 °F 94% 30.25 in 10.0 mi Calm Calm - N/A   Clear
8:45 AM 60.8 °F 57.2 °F 88% 30.26 in 10.0 mi WSW 3.5 mph - N/A   Clear
9:04 AM 64.4 °F 57.2 °F 77% 30.26 in 10.0 mi Calm Calm - N/A   Clear
9:23 AM 64.4 °F 55.4 °F 73% 30.26 in 10.0 mi SSW 3.5 mph - N/A   Clear
9:43 AM 66.2 °F 53.6 °F 64% 30.26 in 10.0 mi SW 3.5 mph - N/A   Clear
10:03 AM 66.2 °F 53.6 °F 64% 30.26 in 10.0 mi Calm Calm - N/A   Clear
10:23 AM 68.0 °F 51.8 °F 56% 30.26 in 10.0 mi Calm Calm - N/A   Clear
10:43 AM 68.0 °F 53.6 °F 60% 30.26 in 10.0 mi South 3.5 mph - N/A   Clear
11:05 AM 69.8 °F 53.6 °F 56% 30.25 in 10.0 mi South 3.5 mph - N/A   Clear
11:23 AM 69.8 °F 53.6 °F 56% 30.25 in 10.0 mi South 5.8 mph - N/A   Clear
11:43 AM 69.8 °F 53.6 °F 56% 30.24 in 10.0 mi Calm Calm - N/A   Clear
12:04 PM 71.6 °F 53.6 °F 53% 30.24 in 10.0 mi SSW 4.6 mph - N/A   Clear
12:23 PM 71.6 °F 53.6 °F 53% 30.24 in 10.0 mi South 4.6 mph - N/A   Clear
12:44 PM 71.6 °F 51.8 °F 50% 30.23 in 10.0 mi Calm Calm - N/A   Clear
1:04 PM 73.4 °F 51.8 °F 47% 30.22 in 10.0 mi ENE 5.8 mph - N/A   Clear
1:23 PM 71.6 °F 51.8 °F 50% 30.22 in 10.0 mi Calm Calm - N/A   Clear
1:45 PM 73.4 °F 50.0 °F 44% 30.21 in 10.0 mi Calm Calm - N/A   Clear
2:05 PM 73.4 °F 51.8 °F 47% 30.21 in 4.0 mi Calm Calm - N/A   Clear
2:23 PM 73.4 °F 51.8 °F 47% 30.21 in 10.0 mi East 4.6 mph - N/A   Clear
2:43 PM 75.2 °F 53.6 °F 47% 30.20 in 10.0 mi SSE 5.8 mph - N/A   Clear
3:12 PM 75.2 °F 51.8 °F 44% 30.19 in 10.0 mi Calm Calm - N/A   Clear
3:29 PM 75.2 °F 53.6 °F 47% 30.18 in 10.0 mi ESE 4.6 mph - N/A   Clear
3:45 PM 75.2 °F 51.8 °F 44% 30.17 in 10.0 mi Calm Calm - N/A   Clear
4:04 PM 75.2 °F 51.8 °F 44% 30.17 in 10.0 mi ENE 3.5 mph - N/A   Clear
4:26 PM 75.2 °F 51.8 °F 44% 30.17 in 10.0 mi ENE 6.9 mph - N/A   Clear
4:45 PM 75.2 °F 53.6 °F 47% 30.16 in 10.0 mi East 3.5 mph - N/A   Clear
5:03 PM 75.2 °F 53.6 °F 47% 30.16 in 10.0 mi SE 3.5 mph - N/A   Clear
5:26 PM 75.2 °F 53.6 °F 47% 30.15 in 10.0 mi ESE 4.6 mph - N/A   Clear
5:47 PM 75.2 °F 53.6 °F 47% 30.14 in 10.0 mi Calm Calm - N/A   Clear
6:04 PM 75.2 °F 51.8 °F 44% 30.14 in 10.0 mi SSE 3.5 mph - N/A   Scattered Clouds
6:28 PM 75.2 °F 53.6 °F 47% 30.13 in 10.0 mi South 5.8 mph - N/A   Clear
6:46 PM 75.2 °F 55.4 °F 50% 30.13 in 10.0 mi SSE 3.5 mph - N/A   Clear
7:06 PM 75.2 °F 53.6 °F 47% 30.12 in 10.0 mi South 4.6 mph - N/A   Scattered Clouds
7:24 PM 75.2 °F 53.6 °F 47% 30.12 in 10.0 mi SSE 5.8 mph - N/A   Clear
7:46 PM 73.4 °F 53.6 °F 50% 30.12 in 10.0 mi SE 5.8 mph - N/A   Scattered Clouds
8:03 PM 71.6 °F 53.6 °F 53% 30.12 in 10.0 mi South 4.6 mph - N/A   Scattered Clouds
8:25 PM 71.6 °F 55.4 °F 57% 30.12 in 10.0 mi Calm Calm - N/A   Clear
8:43 PM 71.6 °F 55.4 °F 57% 30.12 in 10.0 mi Calm Calm - N/A   Clear
9:05 PM 69.8 °F 53.6 °F 56% 30.12 in 10.0 mi Calm Calm - N/A   Clear
9:26 PM 68.0 °F 55.4 °F 64% 30.12 in 10.0 mi SSE 3.5 mph - N/A   Clear
9:43 PM 66.2 °F 55.4 °F 68% 30.12 in 10.0 mi Calm Calm - N/A   Clear
10:04 PM 66.2 °F 55.4 °F 68% 30.12 in 10.0 mi South 3.5 mph - N/A   Clear
10:24 PM 66.2 °F 53.6 °F 64% 30.12 in 10.0 mi Calm Calm - N/A   Clear
10:43 PM 64.4 °F 53.6 °F 68% 30.12 in 10.0 mi South 3.5 mph - N/A   Clear
11:03 PM 62.6 °F 55.4 °F 77% 30.12 in 10.0 mi Calm Calm - N/A   Clear
11:23 PM 62.6 °F 55.4 °F 77% 30.12 in 10.0 mi South 3.5 mph - N/A   Clear
11:44 PM 60.8 °F 57.2 °F 88% 30.12 in 10.0 mi Calm Calm - N/A   Clear